Location: Unspecified
(0.0000°N, 0.0000°E)
Time: 20:32:54
(UTC+00:00)

Altair - All Passes

Search period start: 20 July 2017 00:00
Search period end: 30 July 2017 00:00
Orbit: 1502 x 1682 km, 47.2° (Epoch: 19 July)

Date Brightness Start Highest point End Pass type
(mag) Time Alt. Az. Time Alt. Az. Time Alt. Az.
20 Jul - 03:17:40 10° NNW 03:27:11 53° NE 03:36:57 10° SE visible
20 Jul - 05:23:08 10° WNW 05:31:54 35° SW 05:40:52 10° SSE visible
20 Jul - 14:06:05 10° S 14:12:43 21° SE 14:19:10 10° E daylight
20 Jul - 16:08:04 10° SW 16:17:28 78° NW 16:26:38 10° NE daylight
20 Jul - 18:18:26 10° WNW 18:22:20 13° NW 18:26:14 10° NNW daylight
21 Jul - 02:52:41 10° NNW 03:02:00 47° NE 03:11:33 10° ESE visible
21 Jul - 04:57:39 10° WNW 05:06:41 39° SW 05:15:56 10° SSE visible
21 Jul - 13:41:27 10° S 13:47:29 18° SE 13:53:21 10° E daylight
21 Jul - 15:42:52 10° SW 15:52:20 86° NW 16:01:32 10° NE daylight
21 Jul - 17:52:09 10° W 17:57:06 15° NW 18:02:02 10° NNW daylight
22 Jul - 02:27:45 10° NNW 02:36:49 42° NE 02:46:07 10° ESE visible
22 Jul - 04:32:13 10° WNW 04:41:28 44° SW 04:50:58 10° SSE visible
22 Jul - 13:16:56 10° S 13:22:13 16° SE 13:27:23 10° E daylight
22 Jul - 15:17:42 10° SW 15:27:12 85° SE 15:36:25 10° NE daylight
22 Jul - 17:26:07 10° W 17:31:52 18° NW 17:37:36 10° N daylight
23 Jul - 02:02:50 10° NNW 02:11:37 37° NE 02:20:38 10° ESE visible
23 Jul - 04:06:51 10° WNW 04:16:16 49° SW 04:25:58 10° SSE visible
23 Jul - 12:52:36 10° SSE 12:56:57 14° SE 13:01:13 10° ESE daylight
23 Jul - 14:52:34 10° SW 15:02:05 77° SE 15:11:16 10° NE daylight
23 Jul - 17:00:14 10° W 17:06:40 21° NW 17:13:03 10° N daylight
24 Jul - 01:37:59 10° NNW 01:46:26 33° NE 01:55:05 10° ESE visible
24 Jul - 03:41:32 10° NW 03:51:04 55° SW 04:00:55 10° SSE visible
24 Jul - 12:28:38 10° SSE 12:31:39 12° SE 12:34:38 10° ESE daylight
24 Jul - 14:27:27 10° SSW 14:36:56 69° SE 14:46:05 10° NE daylight
24 Jul - 16:34:29 10° W 16:41:28 24° NW 16:48:24 10° N daylight
25 Jul - 01:13:09 10° N 01:21:14 29° NE 01:29:28 10° ESE visible
25 Jul - 03:16:14 10° NW 03:25:53 61° SW 03:35:51 10° SSE visible
25 Jul - 05:29:50 10° SW 05:31:28 10° SW 05:33:07 10° SSW visible
25 Jul - 14:02:22 10° SSW 14:11:48 61° SE 14:20:52 10° NE daylight
25 Jul - 16:08:48 10° WSW 16:16:18 27° NW 16:23:41 10° N daylight
26 Jul - 00:48:24 10° N 00:56:01 26° NE 01:03:48 10° E visible
26 Jul - 02:50:59 10° NW 03:00:42 68° SW 03:10:45 10° SSE visible
26 Jul - 05:02:26 10° WSW 05:06:08 12° SW 05:09:52 10° SSW visible
26 Jul - 13:37:18 10° SSW 13:46:39 55° SE 13:55:37 10° NE daylight
26 Jul - 15:43:12 10° WSW 15:51:07 31° NW 15:58:54 10° N daylight
27 Jul - 00:23:42 10° N 00:30:48 23° NE 00:38:02 10° E visible
27 Jul - 02:25:47 10° NW 02:35:31 76° SW 02:45:37 10° SE visible
27 Jul - 04:35:56 10° WSW 04:40:49 14° SW 04:45:46 10° SSW visible
27 Jul - 13:12:17 10° SSW 13:21:29 49° SE 13:30:19 10° ENE daylight
27 Jul - 15:17:41 10° WSW 15:25:58 35° NW 15:34:05 10° NNE daylight
27 Jul - 23:59:05 10° N 00:05:34 20° NE 00:12:11 10° E visible
28 Jul - 02:00:36 10° NW 02:10:20 84° SW 02:20:28 10° SE visible
28 Jul - 04:09:45 10° W 04:15:30 17° SW 04:21:23 10° S visible
28 Jul - 12:47:16 10° SSW 12:56:19 43° SE 13:05:00 10° ENE daylight
28 Jul - 14:52:12 10° WSW 15:00:48 39° NW 15:09:13 10° NNE daylight
28 Jul - 23:34:35 10° N 23:40:20 17° NE 23:46:11 10° E visible
29 Jul - 01:35:27 10° NW 01:45:10 88° NE 01:55:16 10° SE night (unlit)
29 Jul - 03:43:46 10° W 03:50:13 19° SW 03:56:49 10° S visible
29 Jul - 12:22:18 10° SSW 12:31:08 39° SE 12:39:37 10° ENE daylight
29 Jul - 14:26:46 10° WSW 14:35:39 44° NW 14:44:19 10° NNE daylight
29 Jul - 23:10:14 10° NNE 23:15:05 15° NE 23:19:59 10° ENE visible
